Regional Weather Roundup
Issued by NWS

Home | Current Version | Previous Version | Text Only | Print | Product List | Glossary Off
Versions: 1 2 3 4 5 6 7 8 9 10 11 12 13 14 15 16 17 18 19 20 21 22 23 24 25 26 27 28 29 30 31 32 33 34 35 36 37 38 39 40 41 42 43 44 45 46 47 48 49 50

697
ASUS43 KMPX 241110
RWRMN
WEATHER ROUNDUP FOR MINNESOTA
NATIONAL WEATHER SERVICE TWIN CITIES/CHANHASSEN MN
500 AM CST TUE JAN 24 2017


NOTE: "FAIR" INDICATES FEW OR NO CLOUDS BELOW 12,000 FEET WITH NO
SIGNIFICANT WEATHER AND/OR OBSTRUCTIONS TO VISIBILITY. N/A MEANS
CURRENT SKY AND/OR WEATHER CONDITIONS ARE NOT AVAILABLE.

MNZ060>063-068>070-241200-
   Twin Cities Metro

CITY           SKY/WX    TMP DP  RH WIND       PRES   REMARKS
TWIN CITIES    CLOUDY    32  26  78 N5        29.87S WCI  27
ST PAUL        CLOUDY    32  29  88 N7        29.89R WCI  26
CRYSTAL        CLOUDY    32  24  72 NW3       29.86S
BLAINE         CLOUDY    34  28  80 NW3       29.87S
LAKEVILLE      CLOUDY    30  28  93 CALM      29.87R
EDEN PRAIRIE   CLOUDY    32  26  78 NW6       29.86S WCI  26
SOUTH ST PAUL  CLOUDY    32  29  88 N5        29.87S WCI  27
LAKE ELMO      CLOUDY    32  30  93 NW5       29.87S WCI  27
$$
MNZ001>005-007-008-013>017-022>024-027-028-241200-
   Northwest Minnesota

CITY           SKY/WX    TMP DP  RH WIND       PRES   REMARKS
BEMIDJI        CLOUDY    27  23  85 W7        29.84R WCI  19
HALLOCK        CLOUDY    27  25  93 SW8       29.83S WCI  18
ROSEAU         CLOUDY    25  21  86 S10       29.83S WCI  15
WARROAD        CLOUDY    25  19  80 SW7       29.84R WCI  17
THIEF RVR FALL CLOUDY    23  20  88 W8        29.87R WCI  14
CROOKSTON      CLOUDY    25  21  86 W13       29.88S WCI  13
FOSSTON        CLOUDY    25  21  86 NW6       29.86R WCI  18
DETROIT LAKES  CLOUDY    30  27  86 NW5       29.86S WCI  25
MOORHEAD       CLOUDY    30  25  80 W3        29.88S
PARK RAPIDS    CLOUDY    28  21  75 NW3       29.84R
MAHNOMEN       CLOUDY    28  25  87 W5        29.85S WCI  23
$$
MNZ006-009>011-018-025>026-241200-
   North Central Minnesota

CITY           SKY/WX    TMP DP  RH WIND       PRES   REMARKS
BAUDETTE       CLOUDY    24  20  84 SW14      29.83R WCI  12
FLAG ISLAND    CLOUDY    25  21  86 S8        29.81S WCI  16
INTL FALLS     CLOUDY    28  22  78 SW3       29.83F
WASKISH        CLOUDY    28  25  86 SW10      29.84S WCI  19
BIG FORK       CLOUDY    28  25  86 CALM      29.83F
LONGVILLE      CLOUDY    28  25  86 CALM      29.84S
GRAND RAPIDS   CLOUDY    30  25  81 CALM      29.85S
CRANE LAKE     CLOUDY    28  27  93 CALM      29.86S
ORR            CLOUDY    28  25  86 CALM      29.80F
COOK           CLOUDY    28  27  93 CALM      29.83S
WALKER         CLOUDY    27  22  82 SW5       29.85R WCI  21
$$
MNZ012-019>021-037-241200-
   Northeast Minnesota

CITY           SKY/WX    TMP DP  RH WIND       PRES   REMARKS
DULUTH         CLOUDY    31  26  82 W6        29.82S WCI  25
ELY            CLOUDY    30  28  93 CALM      29.82S
HIBBING        CLOUDY    29  24  82 W5        29.82F WCI  24
EVELETH        CLOUDY    32  26  78 W5        29.83F WCI  28
DULUTH HARBOR  CLOUDY    34  30  86 W7        29.87R WCI  28
TWO HARBORS    CLOUDY    34  28  80 CALM      29.81S
SILVER BAY     LGT RAIN  34  32  93 CALM      29.80S
GRAND MARAIS     N/A     35  33  92 CALM      29.82S
G MARAIS ARPRT CLOUDY    30  28  93 CALM      29.79S
$$
MNZ029>031-032-039>041-046>048-054>057-064-241200-
   West Central Minnesota

CITY           SKY/WX    TMP DP  RH WIND       PRES   REMARKS
FERGUS FALLS   CLOUDY    30  27  86 N3        29.90S
WHEATON        CLOUDY    30  28  93 CALM      29.89S
MORRIS         CLOUDY    30  27  86 CALM      29.85S
ALEXANDRIA     CLOUDY    30  24  78 CALM      29.85S
ELBOW LAKE     CLOUDY    29  29  99 CALM      29.86S FOG
WADENA         CLOUDY    28  23  80 CALM      29.84S
GLENWOOD       CLOUDY    28  25  86 CALM      29.85S
APPLETON       CLOUDY    32  28  86 E3        29.86F
ORTONVILLE     CLOUDY    30  27  86 CALM      29.86S
MADISON        CLOUDY    34  28  80 E3        29.86S
WILLMAR        CLOUDY    30  27  86 CALM      29.87S
$$
MNZ033>034-036-042>043-049>051-058-059-241200-
   Central Minnesota

CITY           SKY/WX    TMP DP  RH WIND       PRES   REMARKS
ST CLOUD       CLOUDY    31  26  82 N3        29.86S
SAUK CENTRE    CLOUDY    29  25  82 N3        29.86S
PAYNESVILLE    CLOUDY    30  28  94 CALM      29.86F
AITKIN         CLOUDY    34  25  69 N5        29.83S WCI  30
PINE RIVER     CLOUDY    28  25  86 CALM      29.88S
BRAINERD       CLOUDY    30  24  78 NW3       29.85S
STAPLES        CLOUDY    28  25  86 CALM      29.85S
LONG PRAIRIE   CLOUDY    30  25  80 CALM      29.86S
LITTLE FALLS   CLOUDY    30  25  80 CALM      29.86S
LITCHFIELD     CLOUDY    30  27  86 CALM      29.87S
BUFFALO        CLOUDY    31  26  80 CALM      29.87S
MAPLE LAKE     CLOUDY    32  28  86 N3        29.87S
HUTCHINSON     CLOUDY    32  28  84 CALM      29.87S
$$
MNZ037-044-045-052-053-241200-
   East Central Minnesota

CITY           SKY/WX    TMP DP  RH WIND       PRES   REMARKS
PRINCETON      CLOUDY    32  27  80 CALM      29.87S
MORA           CLOUDY    32  27  80 CALM      29.87F
CAMBRIDGE      CLOUDY    34  25  69 CALM      29.85S
RUSH CITY      CLOUDY    32  27  80 CALM      29.86S
MOOSE LAKE     CLOUDY    32  28  86 NW5       29.83F WCI  27
HINCKLEY       CLOUDY    32  30  93 CALM      29.85F
CLOQUET        CLOUDY    30  27  86 W3        29.83S
MCGREGOR       CLOUDY    32  28  86 CALM      29.85S
$$
MNZ071>073-080-081-089-090-097-098-241200-
   Southwest Minnesota

CITY           SKY/WX    TMP DP  RH WIND       PRES   REMARKS
MONTEVIDEO     CLOUDY    30  30 100 CALM      29.88R
GRANITE FALLS  CLOUDY    33  29  87 CALM      29.88R
CANBY          CLOUDY    32  29  89 CALM      29.86R
MARSHALL       CLOUDY    31  28  89 E6        29.86R WCI  25
REDWOOD FALLS  CLOUDY    32  26  78 E3        29.86S
OLIVIA         CLOUDY    32  28  86 NE3       29.86S
PIPESTONE      CLOUDY    30  30 100 SE8       29.79F FOG     WCI  23
WINDOM         CLOUDY    30  28  93 NE5       29.84S WCI  25
WORTHINGTON    CLOUDY    30  29  96 E8          N/A  WCI  22
JACKSON        CLOUDY    30  30 100 E5        29.84S FOG     WCI  25
TRACY          CLOUDY    32  29  89 E3        29.85R
SLAYTON        CLOUDY    30  28  94 E6        29.82S WCI  24
$$
MNZ065>067-074>077-082>085-091>093-241200-
   South Central Minnesota

CITY           SKY/WX    TMP DP  RH WIND       PRES   REMARKS
MANKATO        CLOUDY    31  26  82 CALM      29.88R
NEW ULM        CLOUDY    30  27  86 CALM      29.87R
ST JAMES       CLOUDY    30  28  93 CALM      29.87F
FAIRMONT       CLOUDY    31  28  89 NE7       29.85F WCI  24
GLENCOE        CLOUDY    32  30  93 CALM      29.86S
OWATONNA       CLOUDY    30  27  86 CALM      29.87R
WASECA         CLOUDY    32  28  86 CALM      29.89R
ALBERT LEA     CLOUDY    30  28  93 N3        29.85F
$$
MNZ078>079-086>088-094>096-241200-
   Southeast Minnesota

CITY           SKY/WX    TMP DP  RH WIND       PRES   REMARKS
ROCHESTER      CLOUDY    29  28  96 W6        29.87R WCI  23
RED WING       CLOUDY    34  28  80 CALM      29.87R
STANTON        CLOUDY    32  29  87 NW3       29.86R
DODGE CENTER   CLOUDY    28  27  93 MISG      29.86R
WINONA         CLOUDY    34  32  93 CALM      29.88S
AUSTIN         CLOUDY    30  27  86 CALM      29.85F
PRESTON        CLOUDY    30  25  84 CALM      29.87R
$$
ABBREVIATIONS USED IN REMARKS
   TC - TEMPERATURES IN CELSIUS
  WCI - WIND CHILL INDEX
   HX - HEAT INDEX
  VSB - VISIBILITY
$$




USA.gov is the U.S. government's official web portal to all federal, state and local government web resources and services.